owner,sensor,date,latitude,longitude,vertical_datum,wind_speed,wind_to_direction,wind_speed_of_gust,qcFlag 
FIT,ioos:station:wmo:SIPF1:1,2013-02-25T16:30:00Z,27.8620,-80.4450,1.0,4.5,203.0,99.0,'11111222,11111222,11144222' 
FIT,ioos:station:wmo:SIPF1:1,2013-02-25T16:45:00Z,27.8620,-80.4450,1.0,4.6,197.0,99.0,'11111222,11111222,11144222' 
FIT,ioos:station:wmo:SIPF1:1,2013-02-25T17:00:00Z,27.8620,-80.4450,1.0,4.6,208.0,99.0,'11111222,11111222,11144222' 
FIT,ioos:station:wmo:SIPF1:1,2013-02-25T17:15:00Z,27.8620,-80.4450,1.0,3.8,180.0,99.0,'11111222,11111222,11144222' 
FIT,ioos:station:wmo:SIPF1:1,2013-02-25T17:30:00Z,27.8620,-80.4450,1.0,4.8,129.0,99.0,'11111222,11111222,11144222' 
FIT,ioos:station:wmo:SIPF1:1,2013-02-25T17:45:00Z,27.8620,-80.4450,1.0,4.7,132.0,99.0,'11111222,11111222,11144222' 
FIT,ioos:station:wmo:SIPF1:1,2013-02-25T18:00:00Z,27.8620,-80.4450,1.0,5.2,139.0,99.0,'11111222,11111222,11144222' 
FIT,ioos:station:wmo:SIPF1:1,2013-02-25T18:15:00Z,27.8620,-80.4450,1.0,5.6,133.0,99.0,'11111222,11111222,11144222' 
FIT,ioos:station:wmo:SIPF1:1,2013-02-25T18:30:00Z,27.8620,-80.4450,1.0,5.4,145.0,99.0,'11111222,11111222,11144222' 
FIT,ioos:station:wmo:SIPF1:1,2013-02-25T18:45:00Z,27.8620,-80.4450,1.0,5.8,158.0,99.0,'11111222,11111222,11144222' 
FIT,ioos:station:wmo:SIPF1:1,2013-02-25T19:00:00Z,27.8620,-80.4450,1.0,6.5,146.0,99.0,'11111222,11111222,11144222' 
FIT,ioos:station:wmo:SIPF1:1,2013-02-25T19:15:00Z,27.8620,-80.4450,1.0,6.5,152.0,99.0,'11111222,11111222,11144222' 
FIT,ioos:station:wmo:SIPF1:1,2013-02-25T19:30:00Z,27.8620,-80.4450,1.0,6.9,157.0,99.0,'11111222,11111222,11144222' 
FIT,ioos:station:wmo:SIPF1:1,2013-02-25T19:45:00Z,27.8620,-80.4450,1.0,6.5,152.0,99.0,'11111222,11111222,11144222' 
FIT,ioos:station:wmo:SIPF1:1,2013-02-25T20:00:00Z,27.8620,-80.4450,1.0,6.7,153.0,99.0,'11111222,11111222,11144222' 
FIT,ioos:station:wmo:SIPF1:1,2013-02-25T20:15:00Z,27.8620,-80.4450,1.0,7.4,152.0,99.0,'11111222,11111222,11144222' 
FIT,ioos:station:wmo:SIPF1:1,2013-02-25T20:30:00Z,27.8620,-80.4450,1.0,7.2,151.0,99.0,'11111222,11111222,11144222' 
FIT,ioos:station:wmo:SIPF1:1,2013-02-25T20:45:00Z,27.8620,-80.4450,1.0,7.3,150.0,99.0,'11111222,11111222,11144222' 
FIT,ioos:station:wmo:SIPF1:1,2013-02-25T21:00:00Z,27.8620,-80.4450,1.0,6.6,146.0,99.0,'11111222,11111222,11144222' 
FIT,ioos:station:wmo:SIPF1:1,2013-02-25T21:15:00Z,27.8620,-80.4450,1.0,6.1,146.0,99.0,'11111222,11111222,11144222' 
FIT,ioos:station:wmo:SIPF1:1,2013-02-25T21:30:00Z,27.8620,-80.4450,1.0,6.9,146.0,99.0,'11111222,11111222,11144222' 
FIT,ioos:station:wmo:SIPF1:1,2013-02-25T21:45:00Z,27.8620,-80.4450,1.0,7.5,148.0,99.0,'11111222,11111222,11144222' 
FIT,ioos:station:wmo:SIPF1:1,2013-02-26T13:30:00Z,27.8620,-80.4450,1.0,8.0,182.0,99.0,'11111222,11111222,11144222' 
FIT,ioos:station:wmo:SIPF1:1,2013-02-26T14:00:00Z,27.8620,-80.4450,1.0,9.4,184.0,99.0,'11111222,11111222,11144222' 
FIT,ioos:station:wmo:SIPF1:1,2013-02-26T14:15:00Z,27.8620,-80.4450,1.0,9.2,187.0,99.0,'11111222,11111222,11144222' 
FIT,ioos:station:wmo:SIPF1:1,2013-02-26T14:30:00Z,27.8620,-80.4450,1.0,9.1,194.0,99.0,'11111222,11111222,11144222' 
FIT,ioos:station:wmo:SIPF1:1,2013-02-26T14:45:00Z,27.8620,-80.4450,1.0,10.0,197.0,99.0,'11111222,11111222,11144222' 
FIT,ioos:station:wmo:SIPF1:1,2013-02-26T15:00:00Z,27.8620,-80.4450,1.0,10.0,197.0,99.0,'11111222,11111222,11144222' 
FIT,ioos:station:wmo:SIPF1:1,2013-02-26T15:15:00Z,27.8620,-80.4450,1.0,9.8,200.0,99.0,'11111222,11111222,11144222' 
FIT,ioos:station:wmo:SIPF1:1,2013-02-26T15:30:00Z,27.8620,-80.4450,1.0,10.1,203.0,99.0,'11111222,11111222,11144222' 
FIT,ioos:station:wmo:SIPF1:1,2013-02-26T15:45:00Z,27.8620,-80.4450,1.0,9.7,203.0,99.0,'11111222,11111222,11144222' 
FIT,ioos:station:wmo:SIPF1:1,2013-02-26T16:00:00Z,27.8620,-80.4450,1.0,9.5,200.0,99.0,'11111222,11111222,11144222' 
FIT,ioos:station:wmo:SIPF1:1,2013-02-26T16:15:00Z,27.8620,-80.4450,1.0,10.4,206.0,99.0,'11111222,11111222,11144222' 
FIT,ioos:station:wmo:SIPF1:1,2013-02-26T16:30:00Z,27.8620,-80.4450,1.0,11.1,203.0,99.0,'11111222,11111222,11144222' 
FIT,ioos:station:wmo:SIPF1:1,2013-02-26T16:45:00Z,27.8620,-80.4450,1.0,11.1,209.0,99.0,'11111222,11111222,11144222' 
FIT,ioos:station:wmo:SIPF1:1,2013-02-26T17:00:00Z,27.8620,-80.4450,1.0,9.5,214.0,99.0,'11111222,11111222,11144222' 
FIT,ioos:station:wmo:SIPF1:1,2013-02-26T17:15:00Z,27.8620,-80.4450,1.0,10.8,214.0,99.0,'11111222,11111222,11144222' 
FIT,ioos:station:wmo:SIPF1:1,2013-02-26T17:30:00Z,27.8620,-80.4450,1.0,9.7,208.0,99.0,'11111222,11111222,11144222' 
FIT,ioos:station:wmo:SIPF1:1,2013-02-26T17:45:00Z,27.8620,-80.4450,1.0,8.7,202.0,99.0,'11111222,11111222,11144222' 
FIT,ioos:station:wmo:SIPF1:1,2013-02-26T18:00:00Z,27.8620,-80.4450,1.0,9.6,199.0,99.0,'11111222,11111222,11144222' 
FIT,ioos:station:wmo:SIPF1:1,2013-02-26T18:15:00Z,27.8620,-80.4450,1.0,10.0,204.0,99.0,'11111222,11111222,11144222' 
FIT,ioos:station:wmo:SIPF1:1,2013-02-26T18:30:00Z,27.8620,-80.4450,1.0,9.6,209.0,99.0,'11111222,11111222,11144222' 
FIT,ioos:station:wmo:SIPF1:1,2013-02-26T18:45:00Z,27.8620,-80.4450,1.0,8.9,208.0,99.0,'11111222,11111222,11144222' 
FIT,ioos:station:wmo:SIPF1:1,2013-02-26T19:00:00Z,27.8620,-80.4450,1.0,8.4,212.0,99.0,'11111222,11111222,11144222' 
FIT,ioos:station:wmo:SIPF1:1,2013-02-26T19:15:00Z,27.8620,-80.4450,1.0,7.5,211.0,99.0,'11111222,11111222,11144222' 
FIT,ioos:station:wmo:SIPF1:1,2013-02-26T19:30:00Z,27.8620,-80.4450,1.0,8.0,216.0,99.0,'11111222,11111222,11144222' 
FIT,ioos:station:wmo:SIPF1:1,2013-02-26T19:45:00Z,27.8620,-80.4450,1.0,5.9,215.0,99.0,'11111222,11111222,11144222' 
FIT,ioos:station:wmo:SIPF1:1,2013-02-26T20:00:00Z,27.8620,-80.4450,1.0,7.4,216.0,99.0,'11111222,11111222,11144222' 
FIT,ioos:station:wmo:SIPF1:1,2013-02-26T20:15:00Z,27.8620,-80.4450,1.0,7.1,212.0,99.0,'11111222,11111222,11144222' 
FIT,ioos:station:wmo:SIPF1:1,2013-02-26T20:30:00Z,27.8620,-80.4450,1.0,7.5,207.0,99.0,'11111222,11111222,11144222' 
FIT,ioos:station:wmo:SIPF1:1,2013-02-26T20:45:00Z,27.8620,-80.4450,1.0,5.2,214.0,99.0,'11111222,11111222,11144222' 
FIT,ioos:station:wmo:SIPF1:1,2013-02-26T21:00:00Z,27.8620,-80.4450,1.0,4.6,208.0,99.0,'11111222,11111222,11144222' 
FIT,ioos:station:wmo:SIPF1:1,2013-02-26T21:15:00Z,27.8620,-80.4450,1.0,4.7,214.0,99.0,'11111222,11111222,11144222' 
FIT,ioos:station:wmo:SIPF1:1,2013-02-26T21:30:00Z,27.8620,-80.4450,1.0,5.3,210.0,99.0,'11111222,11111222,11144222' 
FIT,ioos:station:wmo:SIPF1:1,2013-02-26T21:45:00Z,27.8620,-80.4450,1.0,6.0,233.0,99.0,'11111222,11111222,11144222' 
FIT,ioos:station:wmo:SIPF1:1,2013-02-26T22:00:00Z,27.8620,-80.4450,1.0,8.0,250.0,99.0,'11111222,11111222,11144222' 
FIT,ioos:station:wmo:SIPF1:1,2013-02-26T22:15:00Z,27.8620,-80.4450,1.0,5.6,246.0,99.0,'11111222,11111222,11144222' 
FIT,ioos:station:wmo:SIPF1:1,2013-02-26T22:30:00Z,27.8620,-80.4450,1.0,6.3,244.0,99.0,'11111222,11111222,11144222' 
FIT,ioos:station:wmo:SIPF1:1,2013-02-26T22:45:00Z,27.8620,-80.4450,1.0,5.3,239.0,99.0,'11111222,11111222,11144222' 
FIT,ioos:station:wmo:SIPF1:1,2013-02-26T23:00:00Z,27.8620,-80.4450,1.0,6.1,239.0,99.0,'11111222,11111222,11144222' 
FIT,ioos:station:wmo:SIPF1:1,2013-02-26T23:15:00Z,27.8620,-80.4450,1.0,5.4,248.0,99.0,'11111222,11111222,11144222' 
FIT,ioos:station:wmo:SIPF1:1,2013-02-26T23:30:00Z,27.8620,-80.4450,1.0,4.2,242.0,99.0,'11111222,11111222,11144222' 
FIT,ioos:station:wmo:SIPF1:1,2013-02-26T23:45:00Z,27.8620,-80.4450,1.0,4.7,251.0,99.0,'11111222,11111222,11144222' 
FIT,ioos:station:wmo:SIPF1:1,2013-02-27T00:00:00Z,27.8620,-80.4450,1.0,6.1,245.0,99.0,'11111222,11111222,11144222' 
FIT,ioos:station:wmo:SIPF1:1,2013-02-27T00:15:00Z,27.8620,-80.4450,1.0,6.5,239.0,99.0,'11111222,11111222,11144222' 
FIT,ioos:station:wmo:SIPF1:1,2013-02-27T00:30:00Z,27.8620,-80.4450,1.0,6.4,232.0,99.0,'11111222,11111222,11144222' 
FIT,ioos:station:wmo:SIPF1:1,2013-02-27T00:45:00Z,27.8620,-80.4450,1.0,6.7,238.0,99.0,'11111222,11111222,11144222' 
FIT,ioos:station:wmo:SIPF1:1,2013-02-27T01:00:00Z,27.8620,-80.4450,1.0,5.7,229.0,99.0,'11111222,11111222,11144222' 
FIT,ioos:station:wmo:SIPF1:1,2013-02-27T01:15:00Z,27.8620,-80.4450,1.0,5.7,238.0,99.0,'11111222,11111222,11144222' 
FIT,ioos:station:wmo:SIPF1:1,2013-02-27T01:30:00Z,27.8620,-80.4450,1.0,5.8,241.0,99.0,'11111222,11111222,11144222' 
FIT,ioos:station:wmo:SIPF1:1,2013-02-27T01:45:00Z,27.8620,-80.4450,1.0,5.3,244.0,99.0,'11111222,11111222,11144222' 
FIT,ioos:station:wmo:SIPF1:1,2013-02-27T02:00:00Z,27.8620,-80.4450,1.0,5.8,245.0,99.0,'11111222,11111222,11144222' 
FIT,ioos:station:wmo:SIPF1:1,2013-02-27T02:15:00Z,27.8620,-80.4450,1.0,6.8,246.0,99.0,'11111222,11111222,11144222' 
FIT,ioos:station:wmo:SIPF1:1,2013-02-27T02:30:00Z,27.8620,-80.4450,1.0,6.0,242.0,99.0,'11111222,11111222,11144222' 
FIT,ioos:station:wmo:SIPF1:1,2013-02-27T02:45:00Z,27.8620,-80.4450,1.0,4.9,245.0,99.0,'11111222,11111222,11144222' 
FIT,ioos:station:wmo:SIPF1:1,2013-02-27T03:00:00Z,27.8620,-80.4450,1.0,4.9,244.0,99.0,'11111222,11111222,11144222' 
FIT,ioos:station:wmo:SIPF1:1,2013-02-27T03:15:00Z,27.8620,-80.4450,1.0,5.1,244.0,99.0,'11111222,11111222,11144222' 
FIT,ioos:station:wmo:SIPF1:1,2013-02-27T03:30:00Z,27.8620,-80.4450,1.0,5.0,248.0,99.0,'11111222,11111222,11144222' 
FIT,ioos:station:wmo:SIPF1:1,2013-02-27T03:45:00Z,27.8620,-80.4450,1.0,5.9,259.0,99.0,'11111222,11111222,11144222' 
FIT,ioos:station:wmo:SIPF1:1,2013-02-27T04:00:00Z,27.8620,-80.4450,1.0,5.5,259.0,99.0,'11111222,11111222,11144222' 
FIT,ioos:station:wmo:SIPF1:1,2013-02-27T04:15:00Z,27.8620,-80.4450,1.0,4.1,258.0,99.0,'11111222,11111222,11144222' 
FIT,ioos:station:wmo:SIPF1:1,2013-02-27T04:30:00Z,27.8620,-80.4450,1.0,4.1,250.0,99.0,'11111222,11111222,11144222' 
FIT,ioos:station:wmo:SIPF1:1,2013-02-27T04:45:00Z,27.8620,-80.4450,1.0,4.3,246.0,99.0,'11111222,11111222,11144222' 
FIT,ioos:station:wmo:SIPF1:1,2013-02-27T05:00:00Z,27.8620,-80.4450,1.0,4.4,255.0,99.0,'11111222,11111222,11144222' 
FIT,ioos:station:wmo:SIPF1:1,2013-02-27T05:15:00Z,27.8620,-80.4450,1.0,4.6,259.0,99.0,'11111222,11111222,11144222' 
FIT,ioos:station:wmo:SIPF1:1,2013-02-27T05:30:00Z,27.8620,-80.4450,1.0,4.6,257.0,99.0,'11111222,11111222,11144222' 
FIT,ioos:station:wmo:SIPF1:1,2013-02-27T05:45:00Z,27.8620,-80.4450,1.0,4.5,258.0,99.0,'11111222,11111222,11144222' 
FIT,ioos:station:wmo:SIPF1:1,2013-02-27T06:00:00Z,27.8620,-80.4450,1.0,4.6,261.0,99.0,'11111222,11111222,11144222' 
FIT,ioos:station:wmo:SIPF1:1,2013-02-27T06:15:00Z,27.8620,-80.4450,1.0,4.2,254.0,99.0,'11111222,11111222,11144222' 
FIT,ioos:station:wmo:SIPF1:1,2013-02-27T06:30:00Z,27.8620,-80.4450,1.0,3.9,257.0,99.0,'11111222,11111222,11144222' 
FIT,ioos:station:wmo:SIPF1:1,2013-02-27T06:45:00Z,27.8620,-80.4450,1.0,4.3,260.0,99.0,'11111222,11111222,11144222' 
FIT,ioos:station:wmo:SIPF1:1,2013-02-27T07:00:00Z,27.8620,-80.4450,1.0,4.1,262.0,99.0,'11111222,11111222,11144222' 
FIT,ioos:station:wmo:SIPF1:1,2013-02-27T07:15:00Z,27.8620,-80.4450,1.0,4.0,274.0,99.0,'11111222,11111222,11144222' 
FIT,ioos:station:wmo:SIPF1:1,2013-02-27T07:30:00Z,27.8620,-80.4450,1.0,3.7,277.0,99.0,'11111222,11111222,11144222' 
FIT,ioos:station:wmo:SIPF1:1,2013-02-27T07:45:00Z,27.8620,-80.4450,1.0,3.2,280.0,99.0,'11111222,11111222,11144222' 
FIT,ioos:station:wmo:SIPF1:1,2013-02-27T08:00:00Z,27.8620,-80.4450,1.0,2.0,279.0,99.0,'11111222,11111222,11144222' 
FIT,ioos:station:wmo:SIPF1:1,2013-02-27T08:15:00Z,27.8620,-80.4450,1.0,1.9,292.0,99.0,'11111222,11111222,11144222' 
FIT,ioos:station:wmo:SIPF1:1,2013-02-27T08:30:00Z,27.8620,-80.4450,1.0,2.2,290.0,99.0,'11111222,11111222,11144222' 
FIT,ioos:station:wmo:SIPF1:1,2013-02-27T08:45:00Z,27.8620,-80.4450,1.0,1.7,295.0,99.0,'11111222,11111222,11144222' 
FIT,ioos:station:wmo:SIPF1:1,2013-02-27T09:00:00Z,27.8620,-80.4450,1.0,2.3,297.0,99.0,'11111222,11111222,11144222' 
FIT,ioos:station:wmo:SIPF1:1,2013-02-27T09:15:00Z,27.8620,-80.4450,1.0,1.9,281.0,99.0,'11111222,11111222,11144222' 
FIT,ioos:station:wmo:SIPF1:1,2013-02-27T09:30:00Z,27.8620,-80.4450,1.0,2.2,282.0,99.0,'11111222,11111222,11144222' 
FIT,ioos:station:wmo:SIPF1:1,2013-02-27T09:45:00Z,27.8620,-80.4450,1.0,2.1,274.0,99.0,'11111222,11111222,11144222' 
FIT,ioos:station:wmo:SIPF1:1,2013-02-27T10:00:00Z,27.8620,-80.4450,1.0,2.6,270.0,99.0,'11111222,11111222,11144222' 
FIT,ioos:station:wmo:SIPF1:1,2013-02-27T10:15:00Z,27.8620,-80.4450,1.0,2.6,257.0,99.0,'11111222,11111222,11144222' 
FIT,ioos:station:wmo:SIPF1:1,2013-02-27T10:30:00Z,27.8620,-80.4450,1.0,2.5,258.0,99.0,'11111222,11111222,11144222' 
FIT,ioos:station:wmo:SIPF1:1,2013-02-27T10:45:00Z,27.8620,-80.4450,1.0,2.2,273.0,99.0,'11111222,11111222,11144222' 
FIT,ioos:station:wmo:SIPF1:1,2013-02-27T11:00:00Z,27.8620,-80.4450,1.0,2.4,281.0,99.0,'11111222,11111222,11144222' 
FIT,ioos:station:wmo:SIPF1:1,2013-02-27T11:15:00Z,27.8620,-80.4450,1.0,2.4,264.0,99.0,'11111222,11111222,11144222' 
FIT,ioos:station:wmo:SIPF1:1,2013-02-27T11:30:00Z,27.8620,-80.4450,1.0,2.4,261.0,99.0,'11111222,11111222,11144222' 
FIT,ioos:station:wmo:SIPF1:1,2013-02-27T11:45:00Z,27.8620,-80.4450,1.0,2.3,246.0,99.0,'11111222,11111222,11144222' 
FIT,ioos:station:wmo:SIPF1:1,2013-02-27T12:00:00Z,27.8620,-80.4450,1.0,2.1,235.0,99.0,'11111222,11111222,11144222' 
FIT,ioos:station:wmo:SIPF1:1,2013-02-27T12:15:00Z,27.8620,-80.4450,1.0,2.2,248.0,99.0,'11111222,11111222,11144222' 
FIT,ioos:station:wmo:SIPF1:1,2013-02-27T12:30:00Z,27.8620,-80.4450,1.0,2.2,269.0,99.0,'11111222,11111222,11144222' 
FIT,ioos:station:wmo:SIPF1:1,2013-02-27T12:45:00Z,27.8620,-80.4450,1.0,1.9,270.0,99.0,'11111222,11111222,11144222' 
FIT,ioos:station:wmo:SIPF1:1,2013-02-27T13:00:00Z,27.8620,-80.4450,1.0,1.7,285.0,99.0,'11111222,11111222,11144222' 
FIT,ioos:station:wmo:SIPF1:1,2013-02-27T13:15:00Z,27.8620,-80.4450,1.0,2.1,293.0,99.0,'11111222,11111222,11144222' 
FIT,ioos:station:wmo:SIPF1:1,2013-02-27T13:30:00Z,27.8620,-80.4450,1.0,2.5,304.0,99.0,'11111222,11111222,11144222' 
FIT,ioos:station:wmo:SIPF1:1,2013-02-27T13:45:00Z,27.8620,-80.4450,1.0,2.9,305.0,99.0,'11111222,11111222,11144222' 
FIT,ioos:station:wmo:SIPF1:1,2013-02-27T14:00:00Z,27.8620,-80.4450,1.0,3.3,310.0,99.0,'11111222,11111222,11144222' 
FIT,ioos:station:wmo:SIPF1:1,2013-02-27T14:15:00Z,27.8620,-80.4450,1.0,4.4,322.0,99.0,'11111222,11111222,11144222' 
FIT,ioos:station:wmo:SIPF1:1,2013-02-27T14:30:00Z,27.8620,-80.4450,1.0,4.6,326.0,99.0,'11111222,11111222,11144222' 
FIT,ioos:station:wmo:SIPF1:1,2013-02-27T14:45:00Z,27.8620,-80.4450,1.0,3.4,309.0,99.0,'11111222,11111222,11144222' 
FIT,ioos:station:wmo:SIPF1:1,2013-02-27T15:00:00Z,27.8620,-80.4450,1.0,3.8,322.0,99.0,'11111222,11111222,11144222' 
FIT,ioos:station:wmo:SIPF1:1,2013-02-27T15:15:00Z,27.8620,-80.4450,1.0,3.5,333.0,99.0,'11111222,11111222,11144222' 
FIT,ioos:station:wmo:SIPF1:1,2013-02-27T15:30:00Z,27.8620,-80.4450,1.0,3.8,320.0,99.0,'11111222,11111222,11144222' 
FIT,ioos:station:wmo:SIPF1:1,2013-02-27T15:45:00Z,27.8620,-80.4450,1.0,3.0,324.0,99.0,'11111222,11111222,11144222' 
FIT,ioos:station:wmo:SIPF1:1,2013-02-27T16:00:00Z,27.8620,-80.4450,1.0,4.2,334.0,99.0,'11111222,11111222,11144222' 
FIT,ioos:station:wmo:SIPF1:1,2013-02-27T16:15:00Z,27.8620,-80.4450,1.0,3.2,346.0,99.0,'11111222,11111222,11144222' 
FIT,ioos:station:wmo:SIPF1:1,2013-02-27T16:30:00Z,27.8620,-80.4450,1.0,2.4,7.0,99.0,'11111222,11111222,11144222' 
FIT,ioos:station:wmo:SIPF1:1,2013-02-27T16:45:00Z,27.8620,-80.4450,1.0,3.9,348.0,99.0,'11111222,11111222,11144222' 
FIT,ioos:station:wmo:SIPF1:1,2013-02-27T17:00:00Z,27.8620,-80.4450,1.0,4.8,7.0,99.0,'11111222,11111222,11144222' 
FIT,ioos:station:wmo:SIPF1:1,2013-02-27T17:15:00Z,27.8620,-80.4450,1.0,4.7,19.0,99.0,'11111222,11111222,11144222' 
FIT,ioos:station:wmo:SIPF1:1,2013-02-27T17:30:00Z,27.8620,-80.4450,1.0,4.4,17.0,99.0,'11111222,11111222,11144222' 
FIT,ioos:station:wmo:SIPF1:1,2013-02-27T17:45:00Z,27.8620,-80.4450,1.0,5.4,17.0,99.0,'11111222,11111222,11144222' 
FIT,ioos:station:wmo:SIPF1:1,2013-02-27T18:00:00Z,27.8620,-80.4450,1.0,5.5,23.0,99.0,'11111222,11111222,11144222' 
FIT,ioos:station:wmo:SIPF1:1,2013-02-27T18:15:00Z,27.8620,-80.4450,1.0,5.2,25.0,99.0,'11111222,11111222,11144222' 
FIT,ioos:station:wmo:SIPF1:1,2013-02-27T18:30:00Z,27.8620,-80.4450,1.0,5.2,28.0,99.0,'11111222,11111222,11144222' 
FIT,ioos:station:wmo:SIPF1:1,2013-02-27T18:45:00Z,27.8620,-80.4450,1.0,4.8,29.0,99.0,'11111222,11111222,11144222' 
FIT,ioos:station:wmo:SIPF1:1,2013-02-27T19:00:00Z,27.8620,-80.4450,1.0,4.8,31.0,99.0,'11111222,11111222,11144222' 
FIT,ioos:station:wmo:SIPF1:1,2013-02-27T19:15:00Z,27.8620,-80.4450,1.0,5.0,34.0,99.0,'11111222,11111222,11144222' 
FIT,ioos:station:wmo:SIPF1:1,2013-02-27T19:30:00Z,27.8620,-80.4450,1.0,4.8,34.0,99.0,'11111222,11111222,11144222' 
FIT,ioos:station:wmo:SIPF1:1,2013-02-27T19:45:00Z,27.8620,-80.4450,1.0,4.2,46.0,99.0,'11111222,11111222,11144222' 
FIT,ioos:station:wmo:SIPF1:1,2013-02-27T20:00:00Z,27.8620,-80.4450,1.0,3.7,48.0,99.0,'11111222,11111222,11144222' 
FIT,ioos:station:wmo:SIPF1:1,2013-02-27T20:15:00Z,27.8620,-80.4450,1.0,4.0,60.0,99.0,'11111222,11111222,11144222' 
FIT,ioos:station:wmo:SIPF1:1,2013-02-27T20:30:00Z,27.8620,-80.4450,1.0,4.1,62.0,99.0,'11111222,11111222,11144222' 
FIT,ioos:station:wmo:SIPF1:1,2013-02-27T20:45:00Z,27.8620,-80.4450,1.0,3.8,76.0,99.0,'11111222,11111222,11144222' 
FIT,ioos:station:wmo:SIPF1:1,2013-02-27T21:00:00Z,27.8620,-80.4450,1.0,3.2,89.0,99.0,'11111222,11111222,11144222' 
FIT,ioos:station:wmo:SIPF1:1,2013-02-27T21:15:00Z,27.8620,-80.4450,1.0,3.4,109.0,99.0,'11111222,11111222,11144222' 
FIT,ioos:station:wmo:SIPF1:1,2013-02-27T21:30:00Z,27.8620,-80.4450,1.0,3.8,108.0,99.0,'11111222,11111222,11144222' 
FIT,ioos:station:wmo:SIPF1:1,2013-02-27T21:45:00Z,27.8620,-80.4450,1.0,3.8,124.0,99.0,'11111222,11111222,11144222' 
FIT,ioos:station:wmo:SIPF1:1,2013-02-27T22:00:00Z,27.8620,-80.4450,1.0,3.5,135.0,99.0,'11111222,11111222,11144222' 
FIT,ioos:station:wmo:SIPF1:1,2013-02-27T22:15:00Z,27.8620,-80.4450,1.0,3.1,145.0,99.0,'11111222,11111222,11144222' 
FIT,ioos:station:wmo:SIPF1:1,2013-02-27T22:30:00Z,27.8620,-80.4450,1.0,3.7,155.0,99.0,'11111222,11111222,11144222' 
FIT,ioos:station:wmo:SIPF1:1,2013-02-27T22:45:00Z,27.8620,-80.4450,1.0,4.0,159.0,99.0,'11111222,11111222,11144222' 
FIT,ioos:station:wmo:SIPF1:1,2013-02-27T23:00:00Z,27.8620,-80.4450,1.0,4.1,155.0,99.0,'11111222,11111222,11144222' 
FIT,ioos:station:wmo:SIPF1:1,2013-02-27T23:15:00Z,27.8620,-80.4450,1.0,3.9,155.0,99.0,'11111222,11111222,11144222' 
FIT,ioos:station:wmo:SIPF1:1,2013-02-27T23:30:00Z,27.8620,-80.4450,1.0,3.5,162.0,99.0,'11111222,11111222,11144222' 
FIT,ioos:station:wmo:SIPF1:1,2013-02-27T23:45:00Z,27.8620,-80.4450,1.0,3.3,161.0,99.0,'11111222,11111222,11144222' 
FIT,ioos:station:wmo:SIPF1:1,2013-02-28T00:00:00Z,27.8620,-80.4450,1.0,4.0,169.0,99.0,'11111222,11111222,11144222' 
FIT,ioos:station:wmo:SIPF1:1,2013-02-28T00:15:00Z,27.8620,-80.4450,1.0,5.0,170.0,99.0,'11111222,11111222,11144222' 
FIT,ioos:station:wmo:SIPF1:1,2013-02-28T00:30:00Z,27.8620,-80.4450,1.0,4.4,174.0,99.0,'11111222,11111222,11144222' 
FIT,ioos:station:wmo:SIPF1:1,2013-02-28T00:45:00Z,27.8620,-80.4450,1.0,4.4,167.0,99.0,'11111222,11111222,11144222' 
FIT,ioos:station:wmo:SIPF1:1,2013-02-28T01:00:00Z,27.8620,-80.4450,1.0,4.0,165.0,99.0,'11111222,11111222,11144222' 
FIT,ioos:station:wmo:SIPF1:1,2013-02-28T01:15:00Z,27.8620,-80.4450,1.0,4.2,167.0,99.0,'11111222,11111222,11144222' 
FIT,ioos:station:wmo:SIPF1:1,2013-02-28T01:30:00Z,27.8620,-80.4450,1.0,4.4,189.0,99.0,'11111222,11111222,11144222' 
FIT,ioos:station:wmo:SIPF1:1,2013-02-28T01:45:00Z,27.8620,-80.4450,1.0,4.6,199.0,99.0,'11111222,11111222,11144222' 
FIT,ioos:station:wmo:SIPF1:1,2013-02-28T02:00:00Z,27.8620,-80.4450,1.0,4.0,215.0,99.0,'11111222,11111222,11144222' 
FIT,ioos:station:wmo:SIPF1:1,2013-02-28T02:15:00Z,27.8620,-80.4450,1.0,4.9,215.0,99.0,'11111222,11111222,11144222' 
FIT,ioos:station:wmo:SIPF1:1,2013-02-28T02:30:00Z,27.8620,-80.4450,1.0,5.3,216.0,99.0,'11111222,11111222,11144222' 
FIT,ioos:station:wmo:SIPF1:1,2013-02-28T02:45:00Z,27.8620,-80.4450,1.0,4.9,224.0,99.0,'11111222,11111222,11144222' 
FIT,ioos:station:wmo:SIPF1:1,2013-02-28T03:00:00Z,27.8620,-80.4450,1.0,4.6,226.0,99.0,'11111222,11111222,11144222' 
FIT,ioos:station:wmo:SIPF1:1,2013-02-28T03:15:00Z,27.8620,-80.4450,1.0,4.9,236.0,99.0,'11111222,11111222,11144222' 
FIT,ioos:station:wmo:SIPF1:1,2013-02-28T03:30:00Z,27.8620,-80.4450,1.0,4.3,249.0,99.0,'11111222,11111222,11144222' 
FIT,ioos:station:wmo:SIPF1:1,2013-02-28T03:45:00Z,27.8620,-80.4450,1.0,4.2,264.0,99.0,'11111222,11111222,11144222' 
FIT,ioos:station:wmo:SIPF1:1,2013-02-28T04:00:00Z,27.8620,-80.4450,1.0,4.3,268.0,99.0,'11111222,11111222,11144222' 
FIT,ioos:station:wmo:SIPF1:1,2013-02-28T04:15:00Z,27.8620,-80.4450,1.0,4.8,276.0,99.0,'11111222,11111222,11144222' 
FIT,ioos:station:wmo:SIPF1:1,2013-02-28T04:30:00Z,27.8620,-80.4450,1.0,4.5,281.0,99.0,'11111222,11111222,11144222' 
FIT,ioos:station:wmo:SIPF1:1,2013-02-28T05:00:00Z,27.8620,-80.4450,1.0,4.9,277.0,99.0,'11111222,11111222,11144222' 
FIT,ioos:station:wmo:SIPF1:1,2013-02-28T05:15:00Z,27.8620,-80.4450,1.0,4.9,272.0,99.0,'11111222,11111222,11144222' 
FIT,ioos:station:wmo:SIPF1:1,2013-02-28T05:30:00Z,27.8620,-80.4450,1.0,4.2,277.0,99.0,'11111222,11111222,11144222' 
FIT,ioos:station:wmo:SIPF1:1,2013-02-28T05:45:00Z,27.8620,-80.4450,1.0,3.9,276.0,99.0,'11111222,11111222,11144222' 
FIT,ioos:station:wmo:SIPF1:1,2013-02-28T06:00:00Z,27.8620,-80.4450,1.0,4.6,282.0,99.0,'11111222,11111222,11144222' 
FIT,ioos:station:wmo:SIPF1:1,2013-02-28T06:15:00Z,27.8620,-80.4450,1.0,4.8,286.0,99.0,'11111222,11111222,11144222' 
FIT,ioos:station:wmo:SIPF1:1,2013-02-28T06:45:00Z,27.8620,-80.4450,1.0,4.5,296.0,99.0,'11111222,11111222,11144222' 
FIT,ioos:station:wmo:SIPF1:1,2013-02-28T07:00:00Z,27.8620,-80.4450,1.0,4.3,298.0,99.0,'11111222,11111222,11144222' 
FIT,ioos:station:wmo:SIPF1:1,2013-02-28T07:15:00Z,27.8620,-80.4450,1.0,4.6,303.0,99.0,'11111222,11111222,11144222' 
FIT,ioos:station:wmo:SIPF1:1,2013-02-28T07:30:00Z,27.8620,-80.4450,1.0,4.4,303.0,99.0,'11111222,11111222,11144222' 
FIT,ioos:station:wmo:SIPF1:1,2013-02-28T07:45:00Z,27.8620,-80.4450,1.0,4.6,311.0,99.0,'11111222,11111222,11144222' 
FIT,ioos:station:wmo:SIPF1:1,2013-02-28T08:00:00Z,27.8620,-80.4450,1.0,5.2,307.0,99.0,'11111222,11111222,11144222' 
FIT,ioos:station:wmo:SIPF1:1,2013-02-28T08:15:00Z,27.8620,-80.4450,1.0,5.2,315.0,99.0,'11111222,11111222,11144222' 
FIT,ioos:station:wmo:SIPF1:1,2013-02-28T08:30:00Z,27.8620,-80.4450,1.0,5.9,315.0,99.0,'11111222,11111222,11144222' 
FIT,ioos:station:wmo:SIPF1:1,2013-02-28T08:45:00Z,27.8620,-80.4450,1.0,5.2,312.0,99.0,'11111222,11111222,11144222' 
FIT,ioos:station:wmo:SIPF1:1,2013-02-28T09:00:00Z,27.8620,-80.4450,1.0,4.8,304.0,99.0,'11111222,11111222,11144222' 
FIT,ioos:station:wmo:SIPF1:1,2013-02-28T09:15:00Z,27.8620,-80.4450,1.0,4.4,312.0,99.0,'11111222,11111222,11144222' 
FIT,ioos:station:wmo:SIPF1:1,2013-02-28T09:30:00Z,27.8620,-80.4450,1.0,3.8,310.0,99.0,'11111222,11111222,11144222' 
FIT,ioos:station:wmo:SIPF1:1,2013-02-28T09:45:00Z,27.8620,-80.4450,1.0,3.9,301.0,99.0,'11111222,11111222,11144222' 
FIT,ioos:station:wmo:SIPF1:1,2013-02-28T10:00:00Z,27.8620,-80.4450,1.0,4.9,307.0,99.0,'11111222,11111222,11144222' 
FIT,ioos:station:wmo:SIPF1:1,2013-02-28T10:15:00Z,27.8620,-80.4450,1.0,6.2,318.0,99.0,'11111222,11111222,11144222' 
FIT,ioos:station:wmo:SIPF1:1,2013-02-28T10:30:00Z,27.8620,-80.4450,1.0,6.2,314.0,99.0,'11111222,11111222,11144222' 
FIT,ioos:station:wmo:SIPF1:1,2013-02-28T10:45:00Z,27.8620,-80.4450,1.0,6.4,317.0,99.0,'11111222,11111222,11144222' 
FIT,ioos:station:wmo:SIPF1:1,2013-02-28T11:00:00Z,27.8620,-80.4450,1.0,7.0,319.0,99.0,'11111222,11111222,11144222' 
FIT,ioos:station:wmo:SIPF1:1,2013-02-28T11:15:00Z,27.8620,-80.4450,1.0,8.2,319.0,99.0,'11111222,11111222,11144222' 
FIT,ioos:station:wmo:SIPF1:1,2013-02-28T11:30:00Z,27.8620,-80.4450,1.0,8.0,321.0,99.0,'11111222,11111222,11144222' 
FIT,ioos:station:wmo:SIPF1:1,2013-02-28T11:45:00Z,27.8620,-80.4450,1.0,7.8,323.0,99.0,'11111222,11111222,11144222' 
FIT,ioos:station:wmo:SIPF1:1,2013-02-28T12:00:00Z,27.8620,-80.4450,1.0,5.9,319.0,99.0,'11111222,11111222,11144222' 